When you browse on this site, cookies collect data to enhance your experience and personalize the content and advertising you see.
Visit our Privacy Policy to learn more. By continuing to use the site, you agree to this use of cookies and data.
  • In United Kingdom
  • List of Countries
  • For 7 days
  • Water Temperature
  • Weather Map
  • Weather Widgets
  • user-avatar
    Login

    Hourly Weather Torokszentmiklos

    Today, 28 January, Tuesday

    Time Temperature Precipitation Wind Pressure Humidity
    00:00 -1°C° 0 mm 2 mps 754 mmHg 74%
    01:00 -1°C° 0 mm 2 mps 754 mmHg 74%
    02:00 -1°C° 0 mm 2 mps 753 mmHg 77%
    03:00 -1°C° 0 mm 2 mps 753 mmHg 79%
    04:00 -1°C° 0 mm 2 mps 752 mmHg 82%
    05:00 -1°C° 0 mm 3 mps 752 mmHg 83%
    06:00 -1°C° 0 mm 3 mps 752 mmHg 83%
    07:00 -1°C° 0 mm 3 mps 752 mmHg 84%
    08:00 -1°C° 0.3 mm 5 mps 751 mmHg 85%
    09:00 -1°C° 0.3 mm 6 mps 750 mmHg 86%
    10:00 0°C° 0.3 mm 7 mps 750 mmHg 87%
    11:00 0°C° 1.2 mm 7 mps 749 mmHg 89%
    12:00 +2°C° 1.2 mm 7 mps 748 mmHg 91%
    13:00 +2°C° 1.2 mm 7 mps 748 mmHg 94%
    14:00 +3°C° 0.7 mm 6 mps 747 mmHg 93%
    15:00 +3°C° 0.7 mm 6 mps 746 mmHg 92%
    16:00 +3°C° 0.7 mm 5 mps 746 mmHg 90%
    17:00 +3°C° 0.3 mm 5 mps 745 mmHg 89%
    18:00 +5°C° 0.3 mm 5 mps 745 mmHg 87%
    19:00 +5°C° 0.3 mm 5 mps 744 mmHg 85%
    20:00 +5°C° 2.5 mm 5 mps 744 mmHg 88%
    21:00 +4°C° 2.5 mm 6 mps 743 mmHg 91%
    22:00 +4°C° 2.5 mm 6 mps 742 mmHg 94%
    23:00 +3°C° 0.4 mm 7 mps 743 mmHg 91%

    Tomorrow, 29 January, Wednesday

    Time Temperature Precipitation Wind Pressure Humidity
    00:00 +2°C° 0.4 mm 7 mps 743 mmHg 88%
    01:00 +1°C° 0.4 mm 8 mps 743 mmHg 85%
    02:00 0°C° 0 mm 8 mps 744 mmHg 80%
    03:00 0°C° 0 mm 8 mps 744 mmHg 75%
    04:00 0°C° 0 mm 9 mps 745 mmHg 70%
    05:00 0°C° 0 mm 8 mps 746 mmHg 72%
    06:00 -1°C° 0 mm 6 mps 747 mmHg 74%
    07:00 0°C° 0 mm 5 mps 747 mmHg 76%
    08:00 +1°C° 0 mm 6 mps 748 mmHg 76%
    09:00 +2°C° 0 mm 6 mps 748 mmHg 75%
    10:00 +2°C° 0 mm 7 mps 749 mmHg 74%
    11:00 +3°C° 0 mm 7 mps 749 mmHg 71%
    12:00 +4°C° 0 mm 7 mps 749 mmHg 69%
    13:00 +4°C° 0 mm 7 mps 749 mmHg 66%
    14:00 +4°C° 0 mm 6 mps 749 mmHg 66%
    15:00 +3°C° 0 mm 5 mps 749 mmHg 66%
    16:00 +4°C° 0 mm 4 mps 749 mmHg 66%
    17:00 +3°C° 0 mm 4 mps 749 mmHg 68%
    18:00 +2°C° 0 mm 5 mps 749 mmHg 70%
    19:00 +1°C° 0 mm 5 mps 750 mmHg 72%
    20:00 +1°C° 0 mm 5 mps 750 mmHg 72%
    21:00 +1°C° 0 mm 5 mps 751 mmHg 72%
    22:00 -1°C° 0 mm 6 mps 751 mmHg 72%
    23:00 -1°C° 0 mm 6 mps 752 mmHg 72%

    Day after tomorrow, 30 January, Thursday

    Time Temperature Precipitation Wind Pressure Humidity
    00:00 -1°C° 0 mm 6 mps 752 mmHg 73%
    01:00 -1°C° 0 mm 6 mps 752 mmHg 73%
    02:00 -1°C° 0 mm 7 mps 753 mmHg 75%
    03:00 -1°C° 0 mm 7 mps 753 mmHg 77%
    04:00 -2°C° 0 mm 8 mps 753 mmHg 78%
    05:00 -2°C° 0 mm 8 mps 754 mmHg 78%
    06:00 -2°C° 0 mm 8 mps 754 mmHg 78%
    07:00 -2°C° 0 mm 8 mps 755 mmHg 77%
    08:00 -1°C° 0 mm 7 mps 755 mmHg 74%
    09:00 0°C° 0 mm 7 mps 756 mmHg 70%
    10:00 +2°C° 0 mm 7 mps 756 mmHg 67%
    11:00 +2°C° 0 mm 7 mps 756 mmHg 64%
    12:00 +3°C° 0 mm 7 mps 756 mmHg 61%
    13:00 +4°C° 0 mm 7 mps 756 mmHg 58%
    14:00 +3°C° 0 mm 7 mps 756 mmHg 60%
    15:00 +3°C° 0 mm 6 mps 756 mmHg 63%
    16:00 +2°C° 0 mm 5 mps 756 mmHg 65%
    17:00 +1°C° 0 mm 4 mps 756 mmHg 69%
    18:00 +2°C° 0 mm 3 mps 756 mmHg 72%
    19:00 +1°C° 0 mm 3 mps 756 mmHg 76%
    20:00 +1°C° 0 mm 3 mps 756 mmHg 76%
    21:00 +1°C° 0 mm 3 mps 756 mmHg 76%
    22:00 0°C° 0 mm 3 mps 756 mmHg 76%
    23:00 0°C° 0 mm 3 mps 755 mmHg 75%

    31 January, Friday

    Time Temperature Precipitation Wind Pressure Humidity
    00:00 0°C° 0 mm 4 mps 755 mmHg 74%
    01:00 0°C° 0 mm 4 mps 755 mmHg 73%
    02:00 -1°C° 0 mm 4 mps 755 mmHg 73%
    03:00 -1°C° 0 mm 4 mps 754 mmHg 73%
    04:00 -1°C° 0 mm 5 mps 754 mmHg 73%
    05:00 -1°C° 0 mm 5 mps 754 mmHg 73%
    06:00 -1°C° 0 mm 5 mps 754 mmHg 74%
    07:00 -1°C° 0 mm 5 mps 753 mmHg 74%
    08:00 0°C° 0.1 mm 5 mps 753 mmHg 75%
    09:00 +1°C° 0.1 mm 5 mps 753 mmHg 76%
    10:00 +2°C° 0.1 mm 6 mps 753 mmHg 77%
    11:00 +2°C° 0.3 mm 5 mps 753 mmHg 81%
    12:00 +2°C° 0.3 mm 5 mps 753 mmHg 85%
    13:00 +3°C° 0.3 mm 5 mps 752 mmHg 89%
    14:00 +3°C° 0.1 mm 5 mps 752 mmHg 86%
    15:00 +3°C° 0.1 mm 5 mps 752 mmHg 83%
    16:00 +5°C° 0.1 mm 5 mps 752 mmHg 80%
    17:00 +5°C° 0 mm 5 mps 752 mmHg 77%
    18:00 +5°C° 0 mm 5 mps 752 mmHg 75%
    19:00 +5°C° 0 mm 5 mps 752 mmHg 73%
    20:00 +5°C° 0 mm 5 mps 752 mmHg 74%
    21:00 +4°C° 0 mm 6 mps 752 mmHg 75%
    22:00 +4°C° 0 mm 6 mps 752 mmHg 76%
    23:00 +5°C° 0 mm 5 mps 752 mmHg 78%

    1 February, Saturday

    Time Temperature Precipitation Wind Pressure Humidity
    00:00 +6°C° 0 mm 5 mps 752 mmHg 79%
    01:00 +6°C° 0 mm 5 mps 753 mmHg 81%
    02:00 +5°C° 0 mm 5 mps 753 mmHg 83%
    03:00 +5°C° 0 mm 5 mps 753 mmHg 84%
    04:00 +5°C° 0 mm 5 mps 753 mmHg 85%
    05:00 +5°C° 0 mm 4 mps 753 mmHg 85%
    06:00 +5°C° 0 mm 4 mps 753 mmHg 85%
    07:00 +5°C° 0 mm 4 mps 753 mmHg 85%
    08:00 +5°C° 0 mm 4 mps 753 mmHg 84%
    09:00 +6°C° 0 mm 4 mps 753 mmHg 83%
    10:00 +7°C° 0 mm 4 mps 753 mmHg 82%
    11:00 +8°C° 0 mm 4 mps 753 mmHg 78%
    12:00 +10°C° 0 mm 4 mps 753 mmHg 74%
    13:00 +11°C° 0 mm 4 mps 752 mmHg 70%
    14:00 +10°C° 0.1 mm 4 mps 752 mmHg 75%
    15:00 +10°C° 0.1 mm 3 mps 752 mmHg 79%
    16:00 +9°C° 0.1 mm 3 mps 752 mmHg 84%
    17:00 +9°C° 0.2 mm 3 mps 752 mmHg 84%
    18:00 +9°C° 0.2 mm 3 mps 752 mmHg 85%
    19:00 +9°C° 0.2 mm 3 mps 753 mmHg 85%
    20:00 +8°C° 0.2 mm 4 mps 753 mmHg 86%
    21:00 +8°C° 0.2 mm 4 mps 753 mmHg 86%
    22:00 +8°C° 0.2 mm 5 mps 753 mmHg 86%
    23:00 +8°C° 0.1 mm 5 mps 753 mmHg 84%

    2 February, Sunday

    Time Temperature Precipitation Wind Pressure Humidity
    00:00 +8°C° 0.1 mm 5 mps 753 mmHg 82%
    01:00 +8°C° 0.1 mm 5 mps 753 mmHg 80%
    02:00 +8°C° 0 mm 5 mps 754 mmHg 82%
    03:00 +7°C° 0 mm 4 mps 754 mmHg 83%
    04:00 +7°C° 0 mm 4 mps 755 mmHg 85%
    05:00 +7°C° 0 mm 4 mps 755 mmHg 84%
    06:00 +7°C° 0 mm 4 mps 755 mmHg 83%
    07:00 +6°C° 0 mm 4 mps 755 mmHg 82%
    08:00 +7°C° 0 mm 4 mps 756 mmHg 80%
    09:00 +8°C° 0 mm 4 mps 756 mmHg 77%
    10:00 +10°C° 0 mm 4 mps 757 mmHg 75%
    11:00 +11°C° 0 mm 4 mps 756 mmHg 72%
    12:00 +12°C° 0 mm 4 mps 755 mmHg 69%
    13:00 +13°C° 0 mm 5 mps 755 mmHg 65%
    14:00 +12°C° 0 mm 5 mps 754 mmHg 68%
    15:00 +12°C° 0 mm 5 mps 754 mmHg 70%
    16:00 +11°C° 0 mm 6 mps 753 mmHg 73%
    17:00 +11°C° 0 mm 6 mps 753 mmHg 74%
    18:00 +10°C° 0 mm 6 mps 752 mmHg 75%
    19:00 +10°C° 0 mm 6 mps 752 mmHg 76%
    20:00 +10°C° 0.1 mm 6 mps 752 mmHg 76%
    21:00 +10°C° 0.1 mm 7 mps 752 mmHg 76%
    22:00 +10°C° 0.1 mm 7 mps 752 mmHg 76%
    23:00 +9°C° 0 mm 7 mps 751 mmHg 76%
    Show more